Previsão horária em Abartzuza

Hoje, 11 Abril, Domingo

Tempo Temperatura Precipitação Vento Pressão Humidade
00:00 +9°C° 0.1 mm 1 m/s 705 mmHg 92%
01:00 +9°C° 0.4 mm 1 m/s 705 mmHg 93%
02:00 +9°C° 0.4 mm 1 m/s 705 mmHg 94%
03:00 +9°C° 0.4 mm 1 m/s 705 mmHg 96%
04:00 +9°C° 0.8 mm 1 m/s 706 mmHg 96%
05:00 +9°C° 0.8 mm 1 m/s 706 mmHg 95%
06:00 +9°C° 0.8 mm 1 m/s 706 mmHg 95%
07:00 +8°C° 2.3 mm 2 m/s 707 mmHg 94%
08:00 +8°C° 2.3 mm 2 m/s 707 mmHg 94%
09:00 +7°C° 2.3 mm 3 m/s 708 mmHg 93%
10:00 +7°C° 1.5 mm 3 m/s 708 mmHg 91%
11:00 +7°C° 1.5 mm 3 m/s 709 mmHg 90%
12:00 +7°C° 1.5 mm 3 m/s 709 mmHg 88%
13:00 +7°C° 0.2 mm 3 m/s 709 mmHg 87%
14:00 +6°C° 0.2 mm 4 m/s 710 mmHg 85%
15:00 +6°C° 0.2 mm 4 m/s 710 mmHg 84%
16:00 +6°C° 0.1 mm 4 m/s 711 mmHg 85%
17:00 +5°C° 0.1 mm 4 m/s 711 mmHg 85%
18:00 +5°C° 0.1 mm 4 m/s 712 mmHg 86%
19:00 +4°C° 0.4 mm 4 m/s 713 mmHg 88%
20:00 +3°C° 0.4 mm 4 m/s 713 mmHg 90%
21:00 +3°C° 0.4 mm 3 m/s 714 mmHg 92%
22:00 +2°C° 0 mm 3 m/s 714 mmHg 89%
23:00 +2°C° 0 mm 3 m/s 715 mmHg 87%

Amanhã, 12 Abril, Segunda-feira

Tempo Temperatura Precipitação Vento Pressão Humidade
00:00 +1°C° 0 mm 3 m/s 715 mmHg 85%
01:00 0°C° 0 mm 3 m/s 715 mmHg 86%
02:00 0°C° 0 mm 3 m/s 715 mmHg 87%
03:00 -1°C° 0 mm 2 m/s 715 mmHg 88%
04:00 -1°C° 0.1 mm 2 m/s 715 mmHg 90%
05:00 +1°C° 0.1 mm 2 m/s 716 mmHg 91%
06:00 +1°C° 0.1 mm 2 m/s 716 mmHg 93%
07:00 +1°C° 0.1 mm 3 m/s 716 mmHg 87%
08:00 +1°C° 0.1 mm 4 m/s 716 mmHg 82%
09:00 +4°C° 0.1 mm 4 m/s 717 mmHg 76%
10:00 +5°C° 0 mm 5 m/s 717 mmHg 72%
11:00 +6°C° 0 mm 5 m/s 717 mmHg 67%
12:00 +7°C° 0 mm 5 m/s 717 mmHg 63%
13:00 +7°C° 0 mm 5 m/s 717 mmHg 60%
14:00 +7°C° 0 mm 5 m/s 717 mmHg 58%
15:00 +7°C° 0 mm 5 m/s 716 mmHg 56%
16:00 +6°C° 0 mm 4 m/s 717 mmHg 60%
17:00 +6°C° 0 mm 4 m/s 717 mmHg 64%
18:00 +5°C° 0 mm 3 m/s 717 mmHg 69%
19:00 +3°C° 0 mm 3 m/s 717 mmHg 75%
20:00 +2°C° 0 mm 3 m/s 718 mmHg 82%
21:00 +1°C° 0 mm 2 m/s 718 mmHg 89%
22:00 +1°C° 0 mm 2 m/s 718 mmHg 89%
23:00 +1°C° 0 mm 2 m/s 718 mmHg 90%

Depois de amanhã, 13 Abril, Terça-feira

Tempo Temperatura Precipitação Vento Pressão Humidade
00:00 -1°C° 0 mm 2 m/s 718 mmHg 91%
01:00 -1°C° 0 mm 2 m/s 717 mmHg 90%
02:00 -1°C° 0 mm 2 m/s 717 mmHg 90%
03:00 -1°C° 0 mm 2 m/s 717 mmHg 90%
04:00 -1°C° 0 mm 2 m/s 717 mmHg 89%
05:00 -1°C° 0 mm 2 m/s 717 mmHg 88%
06:00 -1°C° 0 mm 2 m/s 717 mmHg 87%
07:00 +3°C° 0 mm 2 m/s 717 mmHg 74%
08:00 +5°C° 0 mm 2 m/s 717 mmHg 61%
09:00 +7°C° 0 mm 2 m/s 717 mmHg 48%
10:00 +9°C° 0 mm 2 m/s 717 mmHg 43%
11:00 +10°C° 0 mm 3 m/s 716 mmHg 39%
12:00 +12°C° 0 mm 3 m/s 716 mmHg 35%
13:00 +12°C° 0 mm 3 m/s 716 mmHg 36%
14:00 +13°C° 0 mm 3 m/s 715 mmHg 36%
15:00 +13°C° 0 mm 3 m/s 715 mmHg 37%
16:00 +12°C° 0 mm 3 m/s 715 mmHg 45%
17:00 +10°C° 0 mm 3 m/s 715 mmHg 53%
18:00 +9°C° 0 mm 2 m/s 714 mmHg 61%
19:00 +8°C° 0 mm 2 m/s 715 mmHg 66%
20:00 +6°C° 0 mm 2 m/s 715 mmHg 70%
21:00 +5°C° 0 mm 2 m/s 715 mmHg 74%
22:00 +4°C° 0 mm 2 m/s 715 mmHg 77%
23:00 +5°C° 0 mm 1 m/s 715 mmHg 80%

14 Abril, Quarta-feira

Tempo Temperatura Precipitação Vento Pressão Humidade
00:00 +4°C° 0 mm 1 m/s 714 mmHg 83%
01:00 +4°C° 0 mm 1 m/s 714 mmHg 83%
02:00 +3°C° 0 mm 1 m/s 714 mmHg 83%
03:00 +3°C° 0 mm 1 m/s 714 mmHg 83%
04:00 +3°C° 0 mm 1 m/s 714 mmHg 82%
05:00 +3°C° 0 mm 1 m/s 714 mmHg 81%
06:00 +3°C° 0 mm 1 m/s 713 mmHg 80%
07:00 +6°C° 0 mm 1 m/s 714 mmHg 71%
08:00 +8°C° 0 mm 1 m/s 714 mmHg 62%
09:00 +11°C° 0 mm 1 m/s 714 mmHg 52%
10:00 +12°C° 0 mm 1 m/s 713 mmHg 48%
11:00 +13°C° 0 mm 1 m/s 713 mmHg 44%
12:00 +15°C° 0 mm 1 m/s 713 mmHg 40%
13:00 +15°C° 0 mm 2 m/s 713 mmHg 40%
14:00 +15°C° 0 mm 2 m/s 712 mmHg 40%
15:00 +16°C° 0 mm 3 m/s 712 mmHg 40%
16:00 +13°C° 0 mm 3 m/s 712 mmHg 47%
17:00 +12°C° 0 mm 3 m/s 712 mmHg 54%
18:00 +10°C° 0 mm 3 m/s 711 mmHg 61%
19:00 +8°C° 0 mm 3 m/s 712 mmHg 67%
20:00 +5°C° 0 mm 3 m/s 712 mmHg 73%
21:00 +4°C° 0 mm 2 m/s 712 mmHg 79%
22:00 +4°C° 0 mm 2 m/s 712 mmHg 78%
23:00 +3°C° 0 mm 2 m/s 712 mmHg 78%

15 Abril, Quinta-feira

Tempo Temperatura Precipitação Vento Pressão Humidade
00:00 +3°C° 0 mm 2 m/s 712 mmHg 78%
01:00 +3°C° 0 mm 2 m/s 712 mmHg 78%
02:00 +4°C° 0 mm 1 m/s 712 mmHg 78%
03:00 +3°C° 0 mm 1 m/s 712 mmHg 79%
04:00 +4°C° 0 mm 1 m/s 712 mmHg 77%
05:00 +4°C° 0 mm 1 m/s 712 mmHg 76%
06:00 +4°C° 0 mm 1 m/s 712 mmHg 74%
07:00 +6°C° 0 mm 1 m/s 712 mmHg 66%
08:00 +8°C° 0 mm 1 m/s 712 mmHg 59%
09:00 +9°C° 0 mm 2 m/s 713 mmHg 51%
10:00 +10°C° 0 mm 2 m/s 712 mmHg 46%
11:00 +12°C° 0 mm 2 m/s 712 mmHg 41%
12:00 +12°C° 0 mm 3 m/s 712 mmHg 36%
13:00 +12°C° 0 mm 4 m/s 711 mmHg 36%
14:00 +12°C° 0 mm 4 m/s 711 mmHg 36%
15:00 +12°C° 0 mm 5 m/s 710 mmHg 36%
16:00 +11°C° 0 mm 4 m/s 710 mmHg 41%
17:00 +10°C° 0 mm 4 m/s 710 mmHg 47%
18:00 +7°C° 0 mm 4 m/s 710 mmHg 52%
19:00 +7°C° 0 mm 3 m/s 710 mmHg 58%
20:00 +4°C° 0 mm 3 m/s 711 mmHg 63%
21:00 +3°C° 0 mm 2 m/s 711 mmHg 69%
22:00 +3°C° 0 mm 2 m/s 711 mmHg 70%
23:00 +2°C° 0 mm 2 m/s 711 mmHg 70%

16 Abril, Sexta-feira

Tempo Temperatura Precipitação Vento Pressão Humidade
00:00 +3°C° 0 mm 1 m/s 711 mmHg 71%
01:00 +3°C° 0 mm 1 m/s 710 mmHg 71%
02:00 +3°C° 0 mm 1 m/s 710 mmHg 71%
03:00 +3°C° 0 mm 1 m/s 710 mmHg 71%
04:00 +3°C° 0 mm 1 m/s 710 mmHg 69%
05:00 +3°C° 0 mm 1 m/s 710 mmHg 67%
06:00 +4°C° 0 mm 1 m/s 710 mmHg 66%
07:00 +5°C° 0 mm 1 m/s 710 mmHg 63%
08:00 +7°C° 0 mm 1 m/s 710 mmHg 60%
09:00 +8°C° 0 mm 0 m/s 710 mmHg 58%
10:00 +10°C° 0 mm 1 m/s 710 mmHg 57%
11:00 +11°C° 0 mm 1 m/s 710 mmHg 56%
12:00 +12°C° 0 mm 2 m/s 710 mmHg 56%
13:00 +12°C° 0 mm 2 m/s 709 mmHg 54%
14:00 +13°C° 0 mm 2 m/s 709 mmHg 52%
15:00 +14°C° 0 mm 2 m/s 709 mmHg 50%
16:00 +13°C° 0 mm 2 m/s 709 mmHg 54%
17:00 +12°C° 0 mm 1 m/s 709 mmHg 58%
18:00 +11°C° 0 mm 1 m/s 708 mmHg 63%
19:00 +10°C° 0 mm 1 m/s 709 mmHg 66%
20:00 +9°C° 0 mm 1 m/s 709 mmHg 69%
21:00 +8°C° 0 mm 1 m/s 709 mmHg 72%
22:00 +6°C° 0 mm 2 m/s 709 mmHg 72%
23:00 +6°C° 0 mm 2 m/s 709 mmHg 72%
Mostrar mais

Necessitamos do seu Consentimento

A Meteoprog e os seus Fornecedores de Serviços podem armazenar e aceder a dados pessoais como cookies, identificadores do dispositivo ou outras tecnologias semelhantes existentes no seu dispositivo e processar estes dados para personalizar conteúdos e anúncios, assim como funcionalidades nas redes sociais e análise de tráfego.

  • Armazenar e/ou aceder a informações no seu dispositivo

    Os cookies, identificadores do dispositivo ou outras informações podem ser armazenados ou acedidos no seu dispositivo, para os fins acima indicados.

  • Anúncios e conteúdos personalizados, medição de anúncios e conteúdos, dados sobre o público-alvo e desenvolvimento de produtos

    Os anúncios e os conteúdos podem ser personalizados com base num perfil. Podem ser adicionados dados adicionais para uma maior personalização dos anúncios e dos conteúdos. A eficácia dos anúncios e dos conteúdos pode ser medida. Podem ser obtidas informações sobre o público que visualizou os anúncios e os conteúdos. Estes dados podem ser usados para desenvolver ou melhorar sistemas, softwares ou a experiência do utilizador.

Ao clicar em "Eu concordo”, permitirá o uso de cookies, identificadores do dispositivo e web beacons mencionados ou outras tecnologias semelhantes. As configurações do navegador do seu dispositivo podem ser alteradas.

Para certos fins, podem ser invocados interesses legítimos ao invés de consentimento. Pode ler mais informação sobre este assunto na nossa Política de Privacidade e Cookies.